• In Hungary
  • List of Countries
  • For 7 days
  • Water Temperature
  • Satellite Maps
  • Weather Map
  • News
  • Weather Widgets
  • user-avatar
    Login

    Hourly Weather Michkovo

    Today, 20 April, Friday

    Time Temperature Precipitation Wind Pressure Humidity
    00:00 +5°C° 0 mm 3 mps 746 mmHg 86%
    01:00 +5°C° 0 mm 3 mps 746 mmHg 89%
    02:00 +5°C° 0 mm 2 mps 747 mmHg 93%
    03:00 +4°C° 0 mm 3 mps 747 mmHg 93%
    04:00 +4°C° 0 mm 3 mps 747 mmHg 94%
    05:00 +3°C° 0 mm 3 mps 747 mmHg 95%
    06:00 +5°C° 0 mm 3 mps 748 mmHg 90%
    07:00 +7°C° 0 mm 3 mps 748 mmHg 86%
    08:00 +9°C° 0 mm 3 mps 748 mmHg 80%
    09:00 +9°C° 0.1 mm 3 mps 748 mmHg 77%
    10:00 +10°C° 0.1 mm 3 mps 748 mmHg 73%
    11:00 +11°C° 0.1 mm 4 mps 748 mmHg 70%
    12:00 +11°C° 0.1 mm 3 mps 748 mmHg 67%
    13:00 +12°C° 0.1 mm 3 mps 748 mmHg 65%
    14:00 +14°C° 0 mm 3 mps 747 mmHg 56%
    15:00 +13°C° 0.2 mm 3 mps 747 mmHg 60%
    16:00 +13°C° 0.2 mm 3 mps 747 mmHg 63%
    17:00 +13°C° 0.2 mm 2 mps 746 mmHg 66%
    18:00 +12°C° 0 mm 2 mps 746 mmHg 72%
    19:00 +10°C° 0 mm 2 mps 746 mmHg 77%
    20:00 +8°C° 0 mm 2 mps 745 mmHg 82%
    21:00 +8°C° 0 mm 2 mps 744 mmHg 82%
    22:00 +8°C° 0 mm 3 mps 743 mmHg 83%
    23:00 +8°C° 0 mm 3 mps 743 mmHg 84%

    Tomorrow, 21 April, Saturday

    Time Temperature Precipitation Wind Pressure Humidity
    00:00 +8°C° 0 mm 3 mps 742 mmHg 82%
    01:00 +7°C° 0 mm 4 mps 741 mmHg 81%
    02:00 +8°C° 0 mm 4 mps 740 mmHg 80%
    03:00 +8°C° 0 mm 4 mps 739 mmHg 83%
    04:00 +8°C° 0 mm 4 mps 739 mmHg 87%
    05:00 +8°C° 0 mm 4 mps 738 mmHg 90%
    06:00 +8°C° 0 mm 4 mps 737 mmHg 88%
    07:00 +9°C° 0 mm 5 mps 736 mmHg 87%
    08:00 +10°C° 0 mm 5 mps 735 mmHg 85%
    09:00 +11°C° 0 mm 6 mps 734 mmHg 78%
    10:00 +14°C° 0 mm 6 mps 733 mmHg 71%
    11:00 +16°C° 0 mm 7 mps 732 mmHg 64%
    12:00 +16°C° 0.2 mm 7 mps 731 mmHg 66%
    13:00 +15°C° 0.2 mm 7 mps 730 mmHg 68%
    14:00 +15°C° 0.2 mm 6 mps 729 mmHg 70%
    15:00 +14°C° 0.7 mm 7 mps 729 mmHg 69%
    16:00 +12°C° 0.7 mm 7 mps 728 mmHg 69%
    17:00 +11°C° 0.7 mm 8 mps 728 mmHg 69%
    18:00 +9°C° 0.1 mm 8 mps 729 mmHg 69%
    19:00 +7°C° 0.1 mm 8 mps 729 mmHg 70%
    20:00 +5°C° 0.1 mm 9 mps 730 mmHg 70%
    21:00 +5°C° 0.1 mm 9 mps 730 mmHg 71%
    22:00 +5°C° 0.1 mm 9 mps 730 mmHg 72%
    23:00 +4°C° 0.1 mm 8 mps 730 mmHg 73%

    Day after tomorrow, 22 April, Sunday

    Time Temperature Precipitation Wind Pressure Humidity
    00:00 +4°C° 0.1 mm 8 mps 731 mmHg 74%
    01:00 +4°C° 0.1 mm 7 mps 732 mmHg 74%
    02:00 +3°C° 0.1 mm 7 mps 732 mmHg 75%
    03:00 +3°C° 0.1 mm 7 mps 733 mmHg 76%
    04:00 +2°C° 0.1 mm 6 mps 733 mmHg 76%
    05:00 +2°C° 0.1 mm 6 mps 734 mmHg 77%
    06:00 +2°C° 0.1 mm 6 mps 734 mmHg 76%
    07:00 +2°C° 0.1 mm 6 mps 735 mmHg 74%
    08:00 +2°C° 0.1 mm 6 mps 735 mmHg 73%
    09:00 +2°C° 0 mm 6 mps 736 mmHg 70%
    10:00 +2°C° 0 mm 5 mps 736 mmHg 68%
    11:00 +2°C° 0 mm 5 mps 737 mmHg 66%
    12:00 +3°C° 0 mm 5 mps 737 mmHg 65%
    13:00 +3°C° 0 mm 5 mps 738 mmHg 64%
    14:00 +3°C° 0 mm 5 mps 738 mmHg 62%
    15:00 +3°C° 0 mm 5 mps 739 mmHg 63%
    16:00 +2°C° 0 mm 5 mps 739 mmHg 63%
    17:00 +2°C° 0 mm 5 mps 740 mmHg 64%
    18:00 +1°C° 0.1 mm 4 mps 740 mmHg 66%
    19:00 +1°C° 0.1 mm 4 mps 741 mmHg 69%
    20:00 +1°C° 0.1 mm 3 mps 741 mmHg 72%
    21:00 0°C° 0 mm 3 mps 742 mmHg 74%
    22:00 0°C° 0 mm 3 mps 742 mmHg 76%
    23:00 -1°C° 0 mm 2 mps 742 mmHg 78%

    23 April, Monday

    Time Temperature Precipitation Wind Pressure Humidity
    00:00 -2°C° 0 mm 2 mps 743 mmHg 80%
    01:00 -2°C° 0 mm 2 mps 743 mmHg 81%
    02:00 -3°C° 0 mm 2 mps 744 mmHg 83%
    03:00 -4°C° 0 mm 3 mps 744 mmHg 83%
    04:00 -4°C° 0 mm 3 mps 744 mmHg 83%
    05:00 -4°C° 0 mm 3 mps 745 mmHg 82%
    06:00 -2°C° 0 mm 3 mps 745 mmHg 72%
    07:00 0°C° 0 mm 3 mps 745 mmHg 62%
    08:00 0°C° 0 mm 4 mps 746 mmHg 51%
    09:00 +1°C° 0 mm 4 mps 746 mmHg 48%
    10:00 +3°C° 0 mm 4 mps 746 mmHg 45%
    11:00 +4°C° 0 mm 3 mps 746 mmHg 42%
    12:00 +5°C° 0 mm 3 mps 746 mmHg 41%
    13:00 +5°C° 0 mm 3 mps 746 mmHg 40%
    14:00 +7°C° 0 mm 3 mps 746 mmHg 39%
    15:00 +7°C° 0 mm 3 mps 746 mmHg 40%
    16:00 +7°C° 0 mm 2 mps 746 mmHg 42%
    17:00 +6°C° 0 mm 2 mps 746 mmHg 43%
    18:00 +6°C° 0 mm 1 mps 746 mmHg 49%
    19:00 +4°C° 0 mm 1 mps 746 mmHg 56%
    20:00 +1°C° 0 mm 0 mps 746 mmHg 62%
    21:00 +2°C° 0 mm 1 mps 746 mmHg 63%
    22:00 +2°C° 0 mm 1 mps 746 mmHg 65%
    23:00 +1°C° 0 mm 1 mps 746 mmHg 66%

    24 April, Tuesday

    Time Temperature Precipitation Wind Pressure Humidity
    00:00 +1°C° 0 mm 1 mps 746 mmHg 67%
    01:00 +1°C° 0 mm 1 mps 746 mmHg 68%
    02:00 +1°C° 0 mm 1 mps 746 mmHg 69%
    03:00 -1°C° 0 mm 2 mps 746 mmHg 68%
    04:00 -1°C° 0 mm 2 mps 746 mmHg 68%
    05:00 -1°C° 0 mm 2 mps 746 mmHg 68%
    06:00 +2°C° 0 mm 2 mps 745 mmHg 62%
    07:00 +3°C° 0 mm 3 mps 745 mmHg 56%
    08:00 +5°C° 0 mm 3 mps 745 mmHg 51%
    09:00 +7°C° 0 mm 3 mps 745 mmHg 47%
    10:00 +7°C° 0 mm 4 mps 744 mmHg 44%
    11:00 +8°C° 0 mm 4 mps 744 mmHg 40%
    12:00 +8°C° 0 mm 4 mps 744 mmHg 42%
    13:00 +10°C° 0 mm 4 mps 743 mmHg 43%
    14:00 +10°C° 0 mm 4 mps 743 mmHg 45%
    15:00 +8°C° 0.1 mm 4 mps 743 mmHg 50%
    16:00 +9°C° 0.1 mm 3 mps 742 mmHg 55%
    17:00 +8°C° 0.1 mm 3 mps 742 mmHg 61%
    18:00 +7°C° 0.1 mm 3 mps 742 mmHg 65%
    19:00 +7°C° 0.1 mm 3 mps 741 mmHg 69%
    20:00 +5°C° 0.1 mm 3 mps 741 mmHg 74%
    21:00 +4°C° 0.1 mm 3 mps 741 mmHg 77%
    22:00 +4°C° 0.1 mm 3 mps 740 mmHg 81%
    23:00 +4°C° 0.1 mm 3 mps 740 mmHg 84%

    25 April, Wednesday

    Time Temperature Precipitation Wind Pressure Humidity
    00:00 +4°C° 0.3 mm 3 mps 740 mmHg 87%
    01:00 +4°C° 0.3 mm 3 mps 739 mmHg 90%
    02:00 +4°C° 0.3 mm 3 mps 739 mmHg 93%
    03:00 +4°C° 0.1 mm 3 mps 739 mmHg 94%
    04:00 +4°C° 0.1 mm 3 mps 739 mmHg 94%
    05:00 +4°C° 0.1 mm 3 mps 739 mmHg 95%
    06:00 +5°C° 0 mm 3 mps 739 mmHg 89%
    07:00 +6°C° 0 mm 4 mps 738 mmHg 84%
    08:00 +7°C° 0 mm 4 mps 738 mmHg 78%
    09:00 +8°C° 0.2 mm 4 mps 738 mmHg 76%
    10:00 +8°C° 0.2 mm 4 mps 738 mmHg 74%
    11:00 +8°C° 0.2 mm 5 mps 738 mmHg 72%
    12:00 +9°C° 0.3 mm 5 mps 737 mmHg 73%
    13:00 +9°C° 0.3 mm 5 mps 737 mmHg 74%
    14:00 +9°C° 0.3 mm 6 mps 736 mmHg 76%
    15:00 +9°C° 0.3 mm 5 mps 736 mmHg 73%
    16:00 +9°C° 0.3 mm 5 mps 736 mmHg 71%
    17:00 +9°C° 0.3 mm 5 mps 736 mmHg 69%
    18:00 +8°C° 0.2 mm 4 mps 736 mmHg 75%
    19:00 +8°C° 0.2 mm 3 mps 736 mmHg 80%
    20:00 +6°C° 0.2 mm 2 mps 736 mmHg 85%
    21:00 +6°C° 0.1 mm 2 mps 736 mmHg 87%
    22:00 +6°C° 0.1 mm 2 mps 736 mmHg 89%
    23:00 +6°C° 0.1 mm 2 mps 736 mmHg 92%
    Show more